{"data":{"norad_id":67340,"epoch":"2026-05-25T01:25:02.547264Z","epoch_age_seconds":59980,"freshness":"FRESH","line1":"1 67340U 26003G   26145.05905726  .00015056  00000+0  55527-3 0  9996","line2":"2 67340  43.0007 155.7717 0000920 269.7192  90.3554 15.27594140 20507","mean_motion":15.2759414,"eccentricity":9.2e-5,"inclination_deg":43.0007,"raan_deg":155.7717,"arg_perigee_deg":269.7192,"mean_anomaly_deg":90.3554,"bstar":0.00055527,"rev_number":2050,"period_min":94.265876144301,"perigee_km":482.37553089385,"apogee_km":483.63798134498,"semimajor_km":6861.1437561194,"source":"CELESTRAK","updated_at":"2026-05-25T13:38:21.523102Z"}}